TJS-7

Last updated on Thu Oct 30 2025 00:02:52 GMT+0000 (Coordinated Universal Time)

1 49115U 21077A 25302.49901714 -.00000114 00000+0 00000+0 0 9999 2 49115 0.0944 265.4836 0000949 246.7356 326.0713 1.00271352 7244
UTC large
Height (km)
Speed (km/s)
/
Latitude / Longitude
Inclination (degrees)
Orbital Period (minutes)
Azimuth
Elevation
Range (km)
Doppler Factor

Next 0 passes for location: London (51.5072 / 0.1276)

Sorry there are no passes over London.